Solomon, AZ

9:02 PM MST on December 04, 2016 (GMT -0700)
Safford Regional

Weather History for KSAD - September, 2012

Change the Weather History Date:

Sunday, September 30, 2012

  Actual Average Record
Temperature  
Mean Temperature 75 °F -  
Max Temperature 93 °F 88 °F 100 °F (2003)
Min Temperature 57 °F 54 °F 37 °F (1965)
Cooling Degree Days 10    
Growing Degree Days 25 (Base 50)    
Moisture  
Dew Point 34 °F    
Average Humidity 27    
Maximum Humidity 55    
Minimum Humidity 9    
Precipitation  
Precipitation 0.00 in - - ()
Sea Level Pressure  
Sea Level Pressure 29.88 in    
Wind  
Wind Speed 4 mph (NW)    
Max Wind Speed 18 mph    
Max Gust Speed 26 mph    
Visibility 10 miles    
Events      
Averages and records for this station are not official NWS values.
T = Trace of Precipitation, MM = Missing Value Source: NWS Daily Summary

Daily Weather History Graph

Daily Weather History Graph

Search for Another Location

Airport or City:

Trip Planner

Search our weather history database for the weather conditions in past years. The results will help you decide how hot, cold, wet, or windy it might be!

Date:

Astronomy

Sep. 30, 2012 Rise Set
Actual Time 6:12 AM MST 6:03 PM MST
Civil Twilight 5:47 AM MST 6:28 PM MST
Nautical Twilight 5:19 AM MST 6:56 PM MST
Astronomical Twilight 4:50 AM MST 7:25 PM MST
Moon 6:15 PM MST (9/30) 6:41 AM MST (9/30)
Length of Visible Light 12h 40m
Length of Day
11h 51m
Full, 100% of the Moon is Illuminated
Sep 30
Full
Oct 8
Last Quarter
Oct 15
New
Oct 21
First Quarter
Oct 29
Full

Hourly Weather History & Observations

Time (MST) Temp. Dew Point Humidity Pressure Visibility Wind Dir Wind Speed Gust Speed Precip Events Conditions
12:51 AM 64.9 °F 42.1 °F 43% 29.91 in 10.0 mi Calm Calm - N/A   Clear
1:51 AM 62.1 °F 39.9 °F 44% 29.91 in 10.0 mi Calm Calm - N/A   Clear
2:51 AM 63.0 °F 42.1 °F 46% 29.90 in 10.0 mi South 3.5 mph - N/A   Clear
3:51 AM 59.0 °F 39.9 °F 49% 29.91 in 10.0 mi Calm Calm - N/A   Clear
4:51 AM 57.0 °F 39.9 °F 53% 29.93 in 10.0 mi North 3.5 mph - N/A   Clear
5:51 AM 57.0 °F 39.9 °F 53% 29.94 in 10.0 mi Calm Calm - N/A   Clear
6:51 AM 57.0 °F 41.0 °F 55% 29.97 in 10.0 mi Calm Calm - N/A   Clear
7:51 AM 66.0 °F 39.9 °F 38% 29.98 in 10.0 mi SE 3.5 mph - N/A   Clear
8:51 AM 72.0 °F 39.9 °F 31% 29.98 in 10.0 mi SE 4.6 mph - N/A   Clear
9:51 AM 77.0 °F 42.1 °F 29% 29.97 in 10.0 mi Calm Calm - N/A   Clear
10:51 AM 82.0 °F 41.0 °F 23% 29.94 in 10.0 mi WNW 4.6 mph - N/A   Clear
11:51 AM 87.1 °F 39.0 °F 18% 29.90 in 10.0 mi NW 9.2 mph - N/A   Clear
12:51 PM 89.1 °F 36.0 °F 15% 29.87 in 10.0 mi West 9.2 mph 16.1 mph N/A   Clear
1:51 PM 91.9 °F 33.1 °F 12% 29.83 in 10.0 mi West 9.2 mph 17.3 mph N/A   Clear
2:51 PM 93.0 °F 30.0 °F 11% 29.79 in 10.0 mi West 13.8 mph 20.7 mph N/A   Clear
3:51 PM 91.0 °F 28.0 °F 10% 29.77 in 10.0 mi Variable 3.5 mph - N/A   Clear
4:51 PM 93.9 °F 26.1 °F 9% 29.77 in 10.0 mi NNW 10.4 mph 25.3 mph N/A   Clear
5:51 PM 90.0 °F 25.0 °F 10% 29.78 in 10.0 mi NNW 18.4 mph 26.5 mph N/A   Clear
6:51 PM 86.0 °F 25.0 °F 11% 29.81 in 10.0 mi NNW 13.8 mph - N/A   Clear
7:51 PM 84.0 °F 25.0 °F 12% 29.82 in 10.0 mi North 11.5 mph - N/A   Clear
8:51 PM 82.0 °F 26.1 °F 13% 29.83 in 10.0 mi North 10.4 mph - N/A   Clear
9:51 PM 78.1 °F 28.0 °F 16% 29.83 in 9.0 mi NNW 9.2 mph - N/A   Clear
10:51 PM 73.9 °F 28.0 °F 18% 29.83 in 10.0 mi West 9.2 mph - N/A   Clear
11:51 PM 75.0 °F 27.0 °F 17% 29.83 in 10.0 mi Calm Calm - N/A   Clear